Location: Unspecified
(0.0000°N, 0.0000°E)
Time: 15:52:47
(UTC+00:00)

Amateur Radio Satellites - All Passes

Search period start: 20 February 2017 15:22
Search period end: 21 February 2017 15:22
Location: Unspecified, 0.0000°N, 0.0000°E

Satellite Date Start Highest point End Downlink Frequencies (MHz)
Time Altitude Azimuth
KKS-1 20 Feb 15:29:06 15:32:46 25° 102° (ESE) 15:36:27 437.445
MOZHAYETS 4 20 Feb 15:52:22 15:56:11 26° 282° (WNW) 15:59:59
STARS 20 Feb 16:18:57 16:23:09 44° 102° (ESE) 16:27:24 437.465
AO-85 20 Feb 16:19:38 16:23:37 49° 248° (WSW) 16:27:54 145.980
PCSat 20 Feb 16:34:06 16:38:59 35° 289° (WNW) 16:43:53 145.827
CUBESAT XI-V 20 Feb 16:35:16 16:39:50 77° 283° (WNW) 16:44:27 437.345
DOVE 4 20 Feb 16:57:29 16:59:52 14° 80° (E) 17:02:11 437.250
AO-7 20 Feb 16:57:44 17:02:03 15° 253° (WSW) 17:06:23 .
JUGNU 20 Feb 17:00:46 17:05:55 31° 161° (SSE) 17:11:02 437.505
KKS-1 20 Feb 17:06:40 17:09:03 14° 282° (WNW) 17:11:27 437.445
M-CUBED/EXP-1 PRIME 20 Feb 17:06:51 17:10:46 47° 285° (WNW) 17:15:00 437.505
RS-15 20 Feb 17:10:02 17:21:20 77° 290° (WNW) 17:33:18 29.354- 29.394
BEESAT 3 20 Feb 17:40:59 17:44:44 42° 68° (ENE) 17:48:28 437.485
XW-2F 20 Feb 17:44:17 17:48:03 65° 79° (ENE) 17:51:49 145.980 - 146.000
XW-2D 20 Feb 17:45:20 17:49:08 74° 78° (ENE) 17:52:56 145.860 - 145.880
KAITUO 1B 20 Feb 17:49:13 17:52:56 62° 79° (E) 17:56:41 145.475/437.950
SRMSAT 20 Feb 17:49:38 17:52:56 15° 168° (SSE) 17:56:13 437.500
XW-2B 20 Feb 17:50:13 17:54:02 86° 75° (ENE) 17:57:50 145.730 - 145.750
HO-68 20 Feb 17:56:07 17:58:54 13° 75° (ENE) 18:01:41 435.675
XW-2C 20 Feb 17:58:38 18:02:24 67° 259° (W) 18:06:11 145.795 - 145.815
STRAND 1 20 Feb 17:58:51 18:01:02 13° 103° (ESE) 18:03:13 437.568
BEESAT 2 20 Feb 18:06:44 18:10:15 29° 68° (ENE) 18:13:44 435.950
LilacSat-2 20 Feb 18:09:26 18:13:04 41° 259° (W) 18:16:42 437.200
XW-2A 20 Feb 18:10:08 18:11:17 11° 79° (ENE) 18:12:26 145.665 - 145.685
CUTE-I 20 Feb 18:19:15 18:24:25 55° 257° (WSW) 18:29:36 437.470
Tancredo 1 20 Feb 18:24:09 18:26:24 18° 54° (NE) 18:28:39 437.200
NUDT-PHONESAT 20 Feb 18:31:47 18:34:51 24° 259° (WSW) 18:37:55 437.300
DOVE 4 20 Feb 18:33:53 18:37:20 22° 257° (WSW) 18:40:40 437.250
JUGNU 20 Feb 18:49:09 18:55:01 85° 158° (SSE) 19:00:53 437.505
CUBEBUG 2 20 Feb 19:08:26 19:11:33 20° 78° (ENE) 19:14:40 437.445
SEEDS 20 Feb 19:20:27 19:24:38 57° 79° (ENE) 19:28:47 437.485
ISS 20 Feb 19:20:44 19:23:53 51° 235° (SW) 19:27:02 437.550
AAUSAT CUBESAT 2 20 Feb 19:27:18 19:30:53 27° 79° (ENE) 19:34:25 437.432
STRAND 1 20 Feb 19:35:12 19:39:55 37° 283° (WNW) 19:44:38 437.568
SRMSAT 20 Feb 19:37:21 19:42:38 33° 161° (SSE) 19:47:56 437.500
HO-68 20 Feb 19:39:08 19:46:16 65° 256° (WSW) 19:53:21 435.675
XW-2A 20 Feb 19:41:53 19:43:47 14° 259° (WSW) 19:45:42 145.665 - 145.685
AO-73 20 Feb 19:47:38 19:50:32 18° 78° (ENE) 19:53:28 145.935
CUTE 1.7 + AOD 2 20 Feb 19:48:15 19:52:03 31° 258° (WSW) 19:55:52 437.475
UWE-3 20 Feb 19:56:45 20:00:53 57° 79° (ENE) 20:05:06 435.000/436.395/437.385
Oscar 11 20 Feb 20:00:59 20:04:32 24° 78° (ENE) 20:08:03 .
Tancredo 1 20 Feb 20:01:06 20:02:30 12° 234° (SW) 20:03:53 437.200
PRISM 20 Feb 20:21:10 20:23:41 16° 102° (ESE) 20:26:12 437.425
ZACube-1 20 Feb 20:30:29 20:34:44 90° 332° (NNW) 20:39:03 437.345
JUGNU 20 Feb 20:38:48 20:44:05 35° 341° (NNW) 20:49:24 437.505
CUBEBUG 2 20 Feb 20:45:31 20:47:54 15° 259° (WSW) 20:50:20 437.445
AAUSAT CUBESAT 2 20 Feb 21:04:56 21:06:03 11° 258° (WSW) 21:07:10 437.432
SO-50 20 Feb 21:10:28 21:14:19 24° 112° (ESE) 21:18:06 436.795
FO-29 20 Feb 21:14:07 21:17:23 14° 101° (E) 21:20:29 435.910
AO-73 20 Feb 21:23:39 21:26:30 18° 259° (WSW) 21:29:24 145.935
SRMSAT 20 Feb 21:25:56 21:31:56 87° 156° (SSE) 21:37:56 437.500
Oscar 11 20 Feb 21:38:13 21:40:23 14° 258° (WSW) 21:42:32 .
DELFI C3 20 Feb 21:49:30 21:53:07 32° 258° (WSW) 21:56:43 145.870
PRISM 20 Feb 21:55:53 21:58:41 18° 282° (WNW) 22:01:32 437.425
UNISAT 6 20 Feb 21:58:56 22:03:31 64° 282° (WNW) 22:08:04 437.425
TIGRISAT 20 Feb 22:00:58 22:05:35 66° 282° (WNW) 22:10:08 435.000
O/OREOS (USA 219) 20 Feb 22:09:14 22:13:19 35° 105° (ESE) 22:17:24 437.305
YUBILEINY 20 Feb 22:28:22 22:37:03 81° 88° (E) 22:45:46 435.215
JUGNU 20 Feb 22:30:09 22:33:35 16° 347° (NNW) 22:37:02 437.505
EO-79 20 Feb 22:32:28 22:34:53 15° 102° (ESE) 22:37:18 145.935-145.965
ESTCUBE 1 20 Feb 22:43:48 22:48:02 39° 78° (ENE) 22:52:14 437.505/2401.250
AIST 2D 20 Feb 22:45:54 22:49:16 43° 101° (E) 22:52:38 435.315
POLYITAN 1 20 Feb 22:47:07 22:50:37 25° 102° (ESE) 22:54:07 437.675
QB50P2 20 Feb 22:49:36 22:53:19 29° 102° (ESE) 22:57:03 145.880/145.840
SO-50 20 Feb 22:51:19 22:54:32 18° 292° (WNW) 22:57:43 436.795
NANOSAT C BR1 20 Feb 22:51:50 22:55:23 26° 102° (ESE) 22:58:55 145.865
FO-29 20 Feb 22:55:28 23:02:21 53° 284° (WNW) 23:08:30 435.910
SRMSAT 20 Feb 23:15:48 23:21:12 35° 341° (NNW) 23:26:37 437.500
50 SAT 20 Feb 23:30:34 23:33:24 22° 79° (ENE) 23:36:12 437.505
VELOX 1 20 Feb 23:33:00 23:37:14 45° 78° (ENE) 23:41:24 145.980
DX 1 20 Feb 23:43:34 23:46:54 21° 78° (ENE) 23:50:11 434.975-435.025
BUGSAT 1 20 Feb 23:46:08 23:50:02 35° 102° (ESE) 23:53:55 437.445
DUCHIFAT 1 21 Feb 00:02:16 00:06:02 31° 282° (WNW) 00:09:47 145.980
UKube-1 21 Feb 00:06:14 00:09:59 29° 78° (ENE) 00:13:42 .
EO-79 21 Feb 00:07:06 00:10:22 22° 282° (WNW) 00:13:40 145.935-145.965
SPROUT 21 Feb 00:22:04 00:26:06 43° 258° (WSW) 00:30:07 437.525
POLYITAN 1 21 Feb 00:24:10 00:26:08 13° 282° (WNW) 00:28:05 437.675
QB50P2 21 Feb 00:27:56 00:28:50 11° 282° (WNW) 00:29:45 145.880/145.840
NANOSAT C BR1 21 Feb 00:29:06 00:30:49 12° 282° (WNW) 00:32:33 145.865
SRMSAT 21 Feb 01:07:23 01:10:54 16° 347° (NNW) 01:14:26 437.500
Oscar 19 21 Feb 01:07:40 01:12:47 86° 101° (ESE) 01:17:56 437.125/150
Gurwin Techsat 1B 21 Feb 01:09:47 01:14:45 41° 103° (ESE) 01:19:44 435.225
DX 1 21 Feb 01:20:13 01:22:48 16° 257° (WSW) 01:25:22 434.975-435.025
BEESAT 21 Feb 01:26:19 01:27:58 12° 77° (ENE) 01:29:36 436.000
AO-7 21 Feb 01:41:22 01:43:47 11° 108° (ESE) 01:46:11 .
UKube-1 21 Feb 01:44:34 01:45:43 11° 257° (WSW) 01:46:52 .
JUGNU 21 Feb 02:11:52 02:13:50 12° 8° (N) 02:15:48 437.505
MOZHAYETS 4 21 Feb 02:32:15 02:35:57 24° 78° (ENE) 02:39:38
RS-15 21 Feb 02:47:21 02:52:13 13° 65° (ENE) 02:56:58 29.354- 29.394
ITUPSAT 1 21 Feb 02:50:38 02:55:15 49° 258° (WSW) 02:59:52 437.325
Gurwin Techsat 1B 21 Feb 02:52:19 02:54:25 12° 283° (WNW) 02:56:30 435.225
AO-85 21 Feb 02:53:43 02:56:55 17° 114° (ESE) 03:00:02 145.980
BEESAT 21 Feb 03:01:08 03:05:27 35° 257° (WSW) 03:09:46 436.000
ITAMSAT 1 21 Feb 03:08:55 03:14:03 63° 283° (WNW) 03:19:12 435.822/435.867
PCSat 21 Feb 03:26:52 03:32:01 46° 71° (ENE) 03:37:11 145.827
AO-7 21 Feb 03:27:48 03:36:03 79° 286° (WNW) 03:44:21 .
KKS-1 21 Feb 03:41:11 03:45:15 36° 78° (ENE) 03:49:18 437.445
JUGNU 21 Feb 03:59:06 04:03:39 22° 16° (NNE) 04:08:12 437.505
MOZHAYETS 4 21 Feb 04:09:59 04:12:49 16° 258° (WSW) 04:15:40
STARS 21 Feb 04:29:41 04:34:00 64° 78° (ENE) 04:38:17 437.465
AO-85 21 Feb 04:32:49 04:37:13 29° 291° (WNW) 04:41:20 145.980
SRMSAT 21 Feb 04:49:24 04:51:31 12° 8° (N) 04:53:38 437.500
RS-15 21 Feb 04:52:50 05:04:42 87° 250° (WSW) 05:15:57 29.354- 29.394
CUBESAT XI-V 21 Feb 04:53:44 04:58:11 42° 258° (WSW) 05:02:37 437.345
M-CUBED/EXP-1 PRIME 21 Feb 05:07:21 05:10:59 43° 254° (WSW) 05:14:21 437.505
PCSat 21 Feb 05:13:39 05:15:10 11° 250° (WSW) 05:16:41 145.827
DOVE 4 21 Feb 05:15:17 05:19:43 32° 103° (ESE) 05:24:19 437.250
CUTE-I 21 Feb 05:19:23 05:23:56 28° 103° (ESE) 05:28:28 437.470
BEESAT 3 21 Feb 05:32:54 05:36:30 41° 112° (ESE) 05:40:08 437.485
XW-2F 21 Feb 05:37:47 05:41:25 49° 101° (E) 05:45:04 145.980 - 146.000
XW-2D 21 Feb 05:39:08 05:42:51 57° 101° (E) 05:46:34 145.860 - 145.880
KAITUO 1B 21 Feb 05:41:48 05:45:22 45° 101° (ESE) 05:48:56 145.475/437.950
XW-2B 21 Feb 05:44:00 05:47:46 66° 101° (ESE) 05:51:31 145.730 - 145.750
JUGNU 21 Feb 05:47:06 05:52:58 55° 21° (NNE) 05:58:49 437.505
XW-2C 21 Feb 05:52:23 05:56:10 86° 281° (WNW) 05:59:57 145.795 - 145.815
Tancredo 1 21 Feb 05:57:56 05:59:01 11° 126° (SE) 06:00:06 437.200
BEESAT 2 21 Feb 05:59:52 06:03:17 30° 112° (ESE) 06:06:43 435.950
LilacSat-2 21 Feb 06:03:45 06:07:26 51° 281° (WNW) 06:11:08 437.200
CUTE 1.7 + AOD 2 21 Feb 06:21:06 06:22:44 12° 102° (ESE) 06:24:20 437.475
NUDT-PHONESAT 21 Feb 06:23:12 06:26:34 33° 281° (WNW) 06:29:57 437.300
STRAND 1 21 Feb 06:29:04 06:33:36 32° 77° (ENE) 06:38:07 437.568
SRMSAT 21 Feb 06:36:53 06:41:29 23° 16° (NNE) 06:46:05 437.500
DOVE 4 21 Feb 06:54:21 06:57:09 15° 281° (W) 07:00:01 437.250
ISS 21 Feb 06:54:25 06:57:42 87° 128° (SE) 07:00:59 437.550
CUTE-I 21 Feb 07:00:01 07:03:41 19° 283° (WNW) 07:07:22 437.470
RS-15 21 Feb 07:14:11 07:16:48 11° 247° (WSW) 07:19:24 29.354- 29.394
CUBEBUG 2 21 Feb 07:19:51 07:24:05 33° 101° (ESE) 07:28:15 437.445
XW-2A 21 Feb 07:23:37 07:26:38 29° 281° (W) 07:29:39 145.665 - 145.685
SEEDS 21 Feb 07:25:36 07:29:43 68° 102° (ESE) 07:33:51 437.485
HO-68 21 Feb 07:30:37 07:37:43 77° 284° (WNW) 07:44:53 435.675
AAUSAT CUBESAT 2 21 Feb 07:30:39 07:34:14 30° 102° (ESE) 07:37:50 437.432
Tancredo 1 21 Feb 07:32:35 07:35:07 21° 306° (NW) 07:37:39 437.200
JUGNU 21 Feb 07:36:10 07:42:02 55° 201° (SSW) 07:47:53 437.505
CUTE 1.7 + AOD 2 21 Feb 07:54:52 07:58:17 25° 281° (WNW) 08:01:44 437.475
AO-73 21 Feb 07:56:31 08:00:09 25° 101° (E) 08:03:45 145.935
UWE-3 21 Feb 08:07:38 08:12:14 86° 102° (ESE) 08:16:45 435.000/436.395/437.385
Oscar 11 21 Feb 08:09:19 08:13:09 32° 102° (ESE) 08:16:58 .
STRAND 1 21 Feb 08:09:41 08:12:29 15° 257° (WSW) 08:15:18 437.568
PRISM 21 Feb 08:23:38 08:26:24 17° 78° (ENE) 08:29:09 437.425
SRMSAT 21 Feb 08:25:05 08:30:55 56° 21° (NNE) 08:36:45 437.500
ZACube-1 21 Feb 08:40:18 08:44:44 64° 282° (WNW) 08:49:05 437.345
CUBEBUG 2 21 Feb 08:58:45 09:00:23 12° 282° (WNW) 09:02:00 437.445
YUBILEINY 21 Feb 09:08:38 09:14:13 18° 93° (E) 09:19:46 435.215
SO-50 21 Feb 09:22:36 09:26:48 41° 68° (ENE) 09:31:02 436.795
JUGNU 21 Feb 09:26:47 09:31:20 22° 196° (SSW) 09:35:53 437.505
AO-73 21 Feb 09:33:54 09:36:06 14° 282° (WNW) 09:38:17 145.935
DELFI C3 21 Feb 09:47:49 09:51:23 34° 281° (W) 09:54:57 145.870
PRISM 21 Feb 09:58:43 10:01:25 17° 258° (WSW) 10:04:06 437.425
UNISAT 6 21 Feb 10:12:29 10:16:31 39° 258° (WSW) 10:20:36 437.425
TIGRISAT 21 Feb 10:14:21 10:18:23 41° 258° (WSW) 10:22:29 435.000
SRMSAT 21 Feb 10:14:21 10:20:09 52° 201° (SSW) 10:25:54 437.500
O/OREOS (USA 219) 21 Feb 10:19:41 10:24:13 64° 76° (ENE) 10:28:47 437.305
FO-29 21 Feb 10:26:46 10:32:43 81° 77° (ENE) 10:39:29 435.910
AIST 2D 21 Feb 10:32:31 10:35:28 25° 79° (ENE) 10:38:23 435.315
DUCHIFAT 1 21 Feb 10:34:32 10:35:59 12° 78° (ENE) 10:37:26 145.980
EO-79 21 Feb 10:38:07 10:40:55 17° 78° (ENE) 10:43:43 145.935-145.965
POLYITAN 1 21 Feb 10:53:10 10:56:49 29° 78° (ENE) 11:00:30 437.675
QB50P2 21 Feb 10:55:43 10:59:35 35° 78° (ENE) 11:03:26 145.880/145.840
NANOSAT C BR1 21 Feb 10:57:22 11:01:03 30° 78° (ENE) 11:04:43 145.865
ESTCUBE 1 21 Feb 10:57:34 11:01:58 61° 102° (ESE) 11:06:23 437.505/2401.250
YUBILEINY 21 Feb 11:02:05 11:10:37 54° 273° (W) 11:19:09 435.215
50 SAT 21 Feb 11:17:30 11:19:07 13° 102° (ESE) 11:20:46 437.505
JUGNU 21 Feb 11:19:12 11:21:10 12° 188° (S) 11:23:07 437.505
VELOX 1 21 Feb 11:44:12 11:48:35 67° 103° (ESE) 11:53:00 145.980
BUGSAT 1 21 Feb 11:49:20 11:53:03 37° 78° (ENE) 11:56:44 437.445
DX 1 21 Feb 11:52:34 11:56:21 29° 102° (ESE) 12:00:08 434.975-435.025
Oscar 19 21 Feb 12:05:03 12:07:32 13° 77° (ENE) 12:09:59 437.125/150
SRMSAT 21 Feb 12:05:11 12:09:35 21° 196° (SSW) 12:14:00 437.500
DUCHIFAT 1 21 Feb 12:07:56 12:11:23 25° 258° (WSW) 12:14:50 145.980
EO-79 21 Feb 12:13:38 12:16:25 17° 258° (WSW) 12:19:12 145.935-145.965
UKube-1 21 Feb 12:14:17 12:18:17 38° 103° (ESE) 12:22:18 .
SPROUT 21 Feb 12:29:16 12:33:11 35° 282° (WNW) 12:37:06 437.525
50 SAT 21 Feb 12:50:03 12:52:00 14° 281° (WNW) 12:53:57 437.505
DX 1 21 Feb 13:30:50 13:32:15 11° 282° (WNW) 13:33:41 434.975-435.025
ITUPSAT 1 21 Feb 13:36:56 13:39:55 17° 103° (ESE) 13:42:52 437.325
Oscar 19 21 Feb 13:41:50 13:46:35 36° 257° (WSW) 13:51:17 437.125/150
BEESAT 21 Feb 13:46:02 13:49:45 23° 103° (ESE) 13:53:27 436.000
Gurwin Techsat 1B 21 Feb 13:48:01 13:53:17 68° 257° (WSW) 13:58:33 435.225
SRMSAT 21 Feb 13:57:50 13:59:35 11° 187° (S) 14:01:20 437.500
AO-7 21 Feb 14:04:06 14:10:07 22° 73° (ENE) 14:16:05 .
ITAMSAT 1 21 Feb 14:05:59 14:09:50 21° 77° (ENE) 14:13:42 435.822/435.867
MOZHAYETS 4 21 Feb 14:48:19 14:52:34 39° 102° (ESE) 14:56:49
JUGNU 21 Feb 14:57:58 15:01:24 16° 167° (SSE) 15:04:50 437.505
AO-85 21 Feb 15:05:30 15:08:45 23° 69° (ENE) 15:12:11 145.980
ITUPSAT 1 21 Feb 15:13:34 15:17:27 25° 282° (WNW) 15:21:20 437.325
